Tracking 29892 objects as of 21-Nov-2024
HD Live streaming from Space Station
objects crossing your sky now

COSMOS 2251 DEB

Track COSMOS 2251 DEB now!
10-day predictions


NORAD ID: 35464
Int'l Code: 1993-036ALJ
Perigee: 494.2 km
Apogee: 523.8 km
Inclination: 74.0 °
Period: 94.7 minutes
Semi major axis: 6879 km
RCS: 0.0073 m2 (small)
Launch date: June 16, 1993
Source: Commonwealth of Independent States (former USSR) (CIS)
Launch site: PLESETSK MISSILE AND SPACE COMPLEX (PKMTR)

Note: This is SATELLITE DEBRIS
Your satellite tracking list
Your tracking list is empty




NASA's NSSDC Master Catalog

Two Line Element Set (TLE):
1 35464U 93036ALJ 24324.96407740  .00143529  00000-0  62494-2 0  9996
2 35464  73.9894 143.9186 0021544  48.3521 103.1219 15.21324167518749
Source of the keplerian elements: AFSPC